Meteo Giornale » Osservazioni meteo India » Aurangabad Chikalthan Aerodrome
ore: 18:30 - Osservazioni Meteo Aurangabad Chikalthan Aerodrome
Lat. 19° 51' N Lon. 75° 24' E Alt. 582 metri s.l.m.
28 °C
Foschia
Temp. 24 Ore
23 °C
29 °C
Ovest
7.4 Km/h
Dew point 22 °C
Umidità 69 %
Visibilità 5 Km
Il sole sorge alle ore 06:12
Il sole tramonta alle ore 18:44
| Data e Ora | Cielo e Fenomeni | T °C | DP °C | Um. % | Pres. hPa | Vis. km | Vento km/h | |
|---|---|---|---|---|---|---|---|---|
| Oggi h: 18:30 | Foschia | 28 | 22 | 69 | 1010 | 5 | O 7.4 | |
| Oggi h: 17:30 | Foschia | 29 | 22 | 66 | 1009 | 5 | O 9.3 | |
| Oggi h: 17:00 | Foschia | 29 | 22 | 66 | 1009 | 5 | O/SO 11.1 | |
| Oggi h: 16:30 | Foschia | 29 | 22 | 66 | 1009 | 5 | O 11.1 | |
| Oggi h: 16:00 | Foschia | 27 | 22 | 74 | 1009 | 5 | O 11.1 | |
| Oggi h: 15:30 | Foschia | 27 | 22 | 74 | 1009 | 5 | O/NO 11.1 | |
| Oggi h: 15:00 | Foschia | 27 | 22 | 74 | 1010 | 5 | O 11.1 | |
| Oggi h: 14:30 | Foschia | 27 | 22 | 74 | 1010 | 5 | O 16.7 | |
| Oggi h: 14:00 | Foschia | 27 | 22 | 74 | 1010 | 4 | O/SO 11.1 | |
| Oggi h: 13:30 | Foschia | 26 | 22 | 78 | 1011 | 4 | O/SO 7.4 | |
| Oggi h: 13:00 | Foschia | 25 | 23 | 88 | 1011 | 4 | SO 7.4 | |
| Oggi h: 12:30 | Foschia | 25 | 23 | 88 | 1012 | 4 | O/SO 11.1 | |
| Oggi h: 12:00 | Foschia | 25 | 23 | 88 | 1012 | 5 | SO 7.4 | |
| Oggi h: 09:30 | Foschia | 25 | 21 | 78 | 1012 | 5 | O/SO 7.4 | |
| Oggi h: 08:30 | Pioviggine | 24 | 22 | 88 | 1011 | 1 | O 11.1 | |
| Oggi h: 08:00 | Foschia | 24 | 21 | 83 | 1011 | 4 | O 9.3 | |
| Oggi h: 07:30 | Foschia | 24 | 21 | 83 | 1010 | 4 | O 9.3 | |
| Oggi h: 07:00 | Foschia | 23 | 21 | 88 | 1010 | 4 | O 9.3 | |
| Oggi h: 06:30 | Foschia | 23 | 21 | 88 | 1010 | 4 | O 11.1 | |
| Oggi h: 06:00 | Foschia | 23 | 21 | 88 | 1010 | 4 | O 11.1 | |
| Oggi h: 05:30 | Foschia | 23 | 21 | 88 | 1009 | 5 | N 3.7 | |
| Ieri h: 22:00 | Foschia | 25 | 21 | 78 | 1011 | 5 | O/SO 7.4 | |
| Ieri h: 21:30 | Foschia | 25 | 20 | 73 | 1011 | 5 | SO 7.4 | |
| Ieri h: 21:00 | Foschia | 26 | 20 | 69 | 1010 | 5 | O 7.4 | |
| Ieri h: 20:30 | Foschia | 27 | 20 | 65 | 1010 | 5 | O/SO 7.4 | |



